Accueil
METAR-TAF:

METAR-TAF

Aéroports :

Waterville Robert LaFleur Airport

Waterville, Maine, États-Unis

latitude: 44-32N, longitude: 069-41W, altitude: 101 m

Observation

Le bulletin a été fait il y a 25 minutes, à 02:56 UTC
Vent 5 kt de nord
Température 17°C
Humidité 94%
Pression 1013 hPa
Visibilité: 16.1 km
Ciel clair

METAR: KWVL 190256Z AUTO 36005KT 10SM CLR 17/16 A2992 RMK AO2 SLP155 T01670156 51010 $

Heure: 23:21 (03:21 UTC)


TAF: absent

Observations et prévisions météorologiques de plus de 4000 aéroports (messages METAR et TAF).

Les stations disponibles sont représentées par des disques jaunes et rouges sur la carte.

Passer la souris dessus pour voir le nom de la station.

Cliquer dessus pour voir les observations et prévisions météorologiques.

Pour changer de carte: cliquez sur les boutons verts avec une croix noire pour zoomer, sur le bouton vert avec un tiret pour effectuer un zoom arrière, ou sur les flèches vertes pour les cartes adjacentes.


METAR-TAF: